Showing default

USA 99, 22988

Orbit data source: Space-Track

USA 99, 22988 is a payload satellite owned by USAF SMC (US) in GEO that was launched on Mon, 07 Feb 1994 UTC via a TITAN 401A/CENTAUR launch vehicle from the Air Force Eastern Test Range (AFETR). Payload-class satellites include a variety of spacecraft equipped with specific instruments for various scientific and technological missions. These include communications satellites like Starlink; space stations such as the ISS; scientific satellites like the Hubble; Earth observation satellites from companies like Planet Labs, Umbra, and HawkEye 360; GPS; miniature CubeSats for education and research; and military/defense satellites.

Loading next visibility...
Identifier
22988, 1994-009A
Orbit
GEO
Country
Flag of USUS
Related business
Manufacturer
LMSC
Mission
Operational Defense Communications
Bus & Motor
MILSTAR, Unknown motor
Mass
4,500 kg wet, ~4,100 kg dry
Launch date (UTC)
1994-02-07 (32 years ago)
Launch vehicle
TITAN 401A/CENTAUR
Launch site
Air Force Eastern Test Range (AFETR)
Object type
Payload
Rocket body
Debris
Shape & HBR
Box + 1 Truss + 2 Dish + 2 Pan, 17.5 m
Radar Cross Section
103.191 m², Large (>1 m²)

Expand to show TLE details & history
Last TLE update: 14 hours ago

TLE from 14 hours ago
0 USA 99
1 22988U 94009A   26061.53715503 -.00000208  00000-0  00000-0 0  9996
2 22988  17.4598  28.8564 0004282 302.8253 292.0306  1.00273117 31881
Epoch: 2026-03-02T12:53Z
TLE epoch observation values (Epoch: 2026-03-02T12:53:30.194Z)
Latitude
-14.1975°
Longitude
-91.29709°
Altitude
35,782.107 km
Speed
3.075 km/s
True Right ascension
17h 29m 37s
True Declination
-14° 11' 01"
Sunlit
Object was in daylight at epoch
Visualization orbit readout
Latitude
Unknown
Longitude
Unknown
Altitude
Unknown
Speed
Unknown
Apparent Right ascension
Unknown
Apparent Declination
Unknown
Sunlit
N/A
Visualization observer readout
Local Sidereal Time
06:56:59
Azimuth
Unknown
Elevation
Unknown
Doppler factor
Unknown
Orbital elements
Apogee altitude
35,805.206 km
Perigee altitude
35,769.096 km
Semi-major axis
42,165.288 km
Eccentricity
0.00043
Inclination
17.4598°
RAAN
28.8564°
Arg. of periapsis
302.8253°
True anomaly
291.98511°
Mean anomaly
292.0306°
Eccentric anomaly
292.00785°
Mean motion
0.25067 °/min
Orbital period
1,436.12 mins
BSTAR
0
Loading maneuver chart data...
Computing Atmospheric mass density...
Loading historical data...
Loading historical data...
Loading historical data...
Loading historical data...
Loading historical data...
Loading historical data...
Loading historical data...
Other satellites on launch #9 in the year 1994 (1994-02-07 UTC)

Documentation

Showing up to 5 results
|